Wind_Speed
22 22 21 21 20 20 21 21 22 21 22 22 22 22 23 24 24 25 25 25 25 24 24 24 25 26 26 26 26 26 27 27 27 27 28 28 29 29 30 30 31 30 29 29
22 23 23 22 22 23 22 23 23 23 23 24 24 23 24 24 25 26 26 26 25 26 26 26 26 26 26 27 27 28 28 27 28 28 28 29 29 30 30 31 31 31 31 31
23 23 24 23 22 23 23 24 25 25 25 25 24 23 24 25 26 27 26 26 26 27 27 28 28 27 27 28 28 28 28 28 28 29 29 30 30 30 31 32 31 33 32 32
23 23 25 22 22 22 23 24 24 24 24 25 25 25 24 25 26 27 26 26 27 27 28 28 29 29 28 28 29 29 29 29 29 29 29 29 30 30 31 32 32 33 33 33
23 24 23 22 22 22 23 24 24 24 24 25 25 25 26 26 27 27 27 26 27 27 28 29 29 29 29 29 29 29 29 29 30 30 30 30 30 30 31 32 33 34 34 34
23 23 23 22 23 22 23 23 23 25 26 26 26 26 26 27 27 27 28 28 27 28 29 29 29 29 29 29 28 28 28 29 30 30 30 30 31 31 32 32 33 33 33 33
23 23 23 23 23 23 23 23 24 25 26 26 27 27 27 27 28 28 28 29 29 29 29 29 28 28 28 28 28 28 28 29 29 30 30 31 31 31 31 33 33 32 32 32
23 24 23 22 23 24 24 24 24 25 25 25 26 27 26 26 27 28 28 29 29 29 30 30 29 29 29 29 29 29 29 29 29 29 30 30 30 30 30 31 31 31 32 31
23 23 23 23 23 24 25 25 25 25 25 25 25 26 26 26 27 28 29 29 30 30 29 29 29 30 29 30 30 30 30 29 29 30 30 30 30 31 31 30 30 30 31 31
24 23 23 23 23 24 25 25 24 25 25 26 26 26 25 26 27 28 28 29 30 30 30 30 30 30 31 31 31 31 31 30 30 29 30 30 31 31 31 31 31 31 31 31
24 24 24 24 24 24 24 24 24 24 24 25 25 26 27 27 26 27 28 29 29 29 29 28 29 29 29 30 31 31 31 32 31 31 31 31 31 31 31 31 32 31 32 32
23 24 25 24 24 24 23 23 24 24 24 24 24 25 26 26 27 27 28 29 29 29 29 29 29 29 29 29 30 31 32 32 31 31 31 31 30 30 30 31 31 31 31 32
24 24 24 24 25 24 23 23 24 24 24 23 24 24 25 26 26 26 27 28 29 29 29 29 28 28 29 29 29 30 30 30 29 30 30 30 29 29 30 30 30 30 31 31
23 23 24 24 24 24 23 22 23 23 23 23 24 24 25 25 26 26 27 27 28 28 27 27 27 28 28 28 29 29 29 28 28 27 27 27 28 29 29 29 30 30 30 31
23 24 24 24 24 24 23 22 23 23 23 24 25 25 25 25 26 27 27 27 27 27 26 27 27 27 27 27 28 28 28 28 27 26 26 26 26 27 27 28 29 29 29 30
24 25 25 25 24 24 24 24 24 24 24 24 24 25 25 25 26 27 27 27 26 26 26 26 27 27 26 27 27 27 27 26 25 25 25 25 25 26 26 27 27 27 28 29
25 25 25 25 25 25 25 24 24 24 25 25 25 26 26 26 26 26 26 26 26 25 25 25 25 25 25 25 26 26 25 25 25 24 24 24 25 25 25 25 26 26 26 27
25 26 25 25 26 26 26 25 25 24 25 26 26 26 26 26 26 26 25 25 25 25 24 24 24 24 25 25 25 25 24 24 24 24 24 24 25 25 25 25 25 25 25 25
26 26 25 25 25 26 26 26 25 25 26 26 26 26 26 25 25 25 25 25 25 24 25 25 24 24 25 25 26 25 24 24 24 24 24 24 24 24 24 25 24 24 24 25
25 25 25 25 25 25 25 25 25 25 25 25 26 25 25 25 25 25 25 25 24 24 25 25 25 25 25 25 25 25 24 23 23 23 23 23 23 23 24 24 24 24 24 25
25 25 25 25 25 25 25 25 25 25 25 25 26 25 25 26 26 26 26 25 24 24 24 24 24 24 25 24 24 24 23 23 23 23 23 23 23 24 24 24 24 25 25 26
23 23 23 24 24 24 24 25 24 24 25 25 25 25 25 25 25 25 25 24 24 24 24 24 24 24 24 23 23 23 23 23 23 23 24 24 24 25 25 25 25 26 26 26
22 22 23 23 23 23 24 24 24 24 24 24 24 24 24 24 24 23 23 23 23 23 23 23 23 23 23 22 22 23 23 23 24 24 24 25 25 25 25 26 26 26 26 26
22 23 23 23 22 23 24 24 24 24 24 23 23 23 23 23 22 23 23 23 23 23 23 22 22 22 23 23 23 24 24 24 25 25 25 25 25 25 26 26 26 26 26 27
23 23 23 23 23 24 24 24 24 23 23 23 23 23 22 22 22 22 23 23 23 23 22 22 22 23 23 23 23 24 24 25 26 26 26 26 26 26 26 26 27 27 27 27
23 23 23 23 23 23 24 24 24 23 23 23 23 23 23 23 23 23 23 23 22 22 22 23 23 23 23 23 24 24 25 25 26 27 27 27 27 27 27 27 27 27 28 28
23 23 23 23 23 23 23 23 23 23 23 23 24 24 24 23 23 23 23 24 23 23 23 23 23 23 23 24 24 25 26 27 27 28 27 27 27 27 27 27 27 28 28 28
Wind_Direction
270 271 271 269 267 266 265 266 268 271 274 276 277 277 277 278 280 282 283 285 285 284 284 283 282 281 279 277 276 275 275 274 272 271 269 269 269 269 271 271 270 269 268 268
270 271 272 271 268 267 267 266 268 271 275 278 279 279 278 277 278 280 281 282 283 284 284 283 282 281 279 277 277 278 277 275 273 272 271 270 270 270 270 271 271 270 269 269
271 272 271 272 274 271 270 269 269 271 275 276 278 281 279 278 277 278 280 282 282 282 282 282 282 280 279 278 277 278 278 277 274 273 273 272 271 271 271 270 272 272 272 271
272 272 271 275 274 273 271 270 270 271 273 276 280 281 281 279 278 279 281 281 281 281 280 281 281 281 280 279 278 277 277 277 276 274 274 274 273 272 271 270 271 272 273 272
273 272 273 272 274 273 273 271 272 273 274 275 278 281 280 279 279 280 280 281 279 281 282 282 282 282 282 281 280 279 277 277 276 275 274 273 274 273 271 271 271 270 270 271
274 275 275 275 274 274 276 275 275 274 275 275 276 281 281 279 280 281 281 282 283 283 284 284 283 283 282 281 280 279 278 277 277 276 276 275 274 274 272 272 271 269 269 269
276 276 276 276 274 274 275 277 277 277 277 277 277 280 282 281 281 282 283 283 285 284 284 283 282 281 281 282 281 280 280 279 278 277 277 277 276 275 274 273 273 271 269 268
276 277 279 279 276 274 276 277 279 279 278 278 279 281 282 282 284 284 284 284 284 284 283 282 281 280 281 280 281 282 280 280 279 279 278 277 277 277 276 274 272 271 270 268
275 278 280 279 279 277 276 278 280 279 279 280 280 281 281 283 285 285 284 284 285 285 284 282 282 282 280 280 280 281 279 280 279 278 278 276 277 278 278 276 272 270 269 268
273 275 276 278 279 278 276 278 281 281 280 280 280 281 282 284 286 286 287 287 287 286 284 282 281 281 281 280 280 280 280 280 280 280 278 278 278 279 278 277 273 271 271 268
273 274 275 277 279 279 280 279 279 280 281 281 279 280 282 285 286 287 288 289 288 288 287 284 282 281 280 281 282 282 281 280 281 281 280 279 278 278 278 278 276 273 271 270
272 274 275 276 278 278 279 280 280 282 283 283 282 282 284 285 288 289 288 289 289 289 288 286 285 284 283 283 283 284 284 282 281 280 280 280 278 277 277 278 278 276 274 272
273 273 274 275 276 276 277 279 282 283 284 284 284 284 285 287 290 291 291 290 290 290 289 287 285 285 286 285 285 285 285 284 283 281 281 279 278 277 276 276 277 277 275 274
274 274 274 275 276 276 276 279 280 282 283 284 285 285 286 288 290 292 293 292 291 290 288 286 286 287 288 288 287 286 287 287 285 284 284 282 280 278 277 275 276 276 275 275
275 275 275 276 276 276 275 278 279 282 284 284 284 285 285 287 289 291 293 293 292 290 288 286 287 288 288 288 288 287 288 288 287 285 285 284 282 281 281 279 278 277 276 275
274 274 275 276 277 277 275 278 280 282 284 284 285 284 285 285 287 290 292 292 292 291 289 288 288 287 287 288 289 288 289 289 287 285 285 285 284 283 284 283 281 281 279 278
274 274 274 274 274 274 274 278 280 281 283 285 286 285 285 285 286 288 291 292 291 291 290 289 288 288 289 289 290 290 289 288 287 286 286 286 286 286 286 285 283 282 281 281
275 275 275 274 273 273 275 278 279 280 281 283 285 286 286 286 287 288 289 291 291 291 290 288 287 288 290 290 290 290 290 290 289 287 287 288 288 288 287 287 286 284 283 282
275 275 275 274 275 276 275 276 278 279 281 283 284 285 286 286 287 288 288 290 290 289 290 288 287 288 291 291 291 290 289 289 288 288 287 288 290 289 288 287 287 285 283 282
275 274 275 275 276 277 276 276 278 279 280 281 283 285 285 286 287 288 289 289 289 288 288 288 287 288 290 289 289 289 289 288 288 288 289 289 290 291 291 289 287 285 284 284
276 275 274 275 277 278 278 278 278 279 280 281 283 285 286 286 287 287 288 288 287 287 287 287 287 289 290 289 289 290 289 289 289 289 289 289 289 291 292 291 289 287 286 286
277 276 275 276 276 278 278 278 280 281 281 282 283 285 287 287 287 287 287 287 286 286 286 286 288 288 289 289 288 288 289 290 290 290 290 290 290 290 291 291 290 289 288 287
278 277 277 276 276 277 277 278 280 283 283 283 284 286 288 288 289 288 287 286 285 285 286 287 289 289 289 288 288 288 288 290 290 290 291 291 290 290 291 291 292 291 289 289
279 279 277 276 276 276 277 278 280 282 282 283 284 286 288 288 288 288 287 286 285 286 286 287 287 288 288 288 288 289 290 290 290 290 291 291 291 291 292 292 292 291 291 290
279 278 277 278 277 277 277 278 278 279 280 281 284 286 288 289 289 289 288 287 287 288 287 287 287 288 289 290 290 290 291 291 291 291 291 292 292 291 291 291 291 291 290 290
279 277 276 277 278 277 277 277 276 277 279 280 282 284 286 288 288 288 288 288 289 289 288 287 287 288 290 292 292 292 293 293 293 293 292 291 291 291 291 291 291 291 291 291
277 277 277 276 275 275 276 277 276 276 279 280 281 283 285 286 287 288 289 290 289 289 288 288 287 288 290 293 294 294 294 295 295 294 293 293 293 293 292 291 291 291 291 292
Height
5788 5787 5787 5786 5786 5786 5785 5785 5785 5785 5784 5784 5783 5782 5782 5781 5780 5779 5778 5777 5775 5774 5773 5772 5770 5768 5767 5766 5764 5764 5763 5762 5762 5762 5761 5761 5760 5760 5760 5760 5760 5760 5760 5759
5781 5781 5780 5779 5780 5779 5779 5779 5778 5778 5778 5777 5777 5776 5774 5773 5773 5771 5770 5769 5768 5766 5765 5763 5762 5760 5759 5757 5756 5755 5754 5754 5753 5753 5752 5752 5751 5751 5751 5751 5751 5751 5751 5750
5774 5774 5772 5773 5774 5773 5772 5772 5772 5771 5772 5770 5769 5768 5767 5766 5765 5763 5762 5761 5760 5758 5756 5755 5753 5752 5750 5749 5748 5747 5746 5744 5744 5743 5743 5742 5742 5741 5741 5741 5741 5741 5741 5741
5767 5767 5766 5770 5767 5766 5765 5765 5765 5765 5764 5763 5762 5761 5760 5758 5757 5756 5754 5753 5752 5750 5748 5747 5745 5743 5741 5740 5739 5738 5737 5736 5734 5734 5733 5733 5732 5732 5732 5731 5731 5731 5731 5731
5761 5760 5760 5761 5760 5759 5758 5758 5758 5757 5757 5756 5755 5753 5752 5751 5749 5748 5746 5745 5743 5741 5740 5738 5736 5734 5733 5731 5730 5728 5727 5726 5725 5724 5724 5723 5723 5722 5722 5721 5721 5721 5721 5721
5754 5753 5753 5755 5753 5752 5752 5752 5751 5750 5749 5748 5747 5746 5746 5743 5742 5740 5738 5736 5735 5733 5731 5729 5727 5726 5724 5723 5721 5720 5718 5717 5716 5715 5714 5714 5713 5712 5712 5711 5711 5710 5710 5710
5747 5745 5746 5747 5746 5746 5746 5746 5744 5743 5742 5741 5740 5739 5738 5736 5734 5732 5730 5728 5726 5724 5722 5721 5719 5717 5716 5714 5712 5711 5709 5708 5707 5706 5705 5704 5703 5703 5702 5701 5701 5700 5700 5700
5740 5739 5741 5739 5738 5738 5738 5737 5736 5735 5734 5733 5732 5731 5729 5727 5726 5724 5722 5720 5718 5716 5714 5712 5710 5709 5707 5705 5704 5702 5701 5699 5698 5697 5696 5695 5693 5693 5692 5691 5691 5690 5690 5690
5734 5735 5733 5731 5731 5730 5729 5729 5728 5727 5726 5725 5724 5723 5721 5719 5717 5715 5714 5712 5710 5707 5705 5703 5702 5700 5698 5697 5695 5693 5692 5690 5689 5688 5686 5685 5685 5684 5682 5681 5681 5681 5680 5680
5726 5726 5725 5724 5723 5722 5721 5721 5720 5719 5718 5717 5716 5714 5713 5711 5709 5707 5705 5703 5701 5698 5696 5695 5693 5691 5689 5688 5686 5684 5683 5681 5680 5678 5677 5676 5675 5674 5673 5672 5671 5671 5671 5671
5718 5719 5718 5717 5716 5714 5714 5713 5712 5711 5710 5709 5708 5706 5705 5703 5701 5699 5697 5694 5692 5690 5688 5686 5684 5682 5680 5679 5677 5675 5673 5672 5670 5669 5668 5667 5666 5664 5663 5662 5661 5661 5661 5660
5712 5711 5710 5709 5708 5707 5706 5706 5705 5704 5703 5701 5700 5698 5697 5695 5693 5691 5689 5686 5684 5682 5679 5677 5675 5673 5671 5670 5668 5666 5664 5662 5661 5659 5658 5657 5656 5655 5653 5652 5651 5650 5650 5650
5703 5703 5702 5701 5700 5699 5698 5698 5697 5696 5695 5694 5692 5691 5689 5687 5685 5683 5680 5678 5676 5673 5671 5669 5667 5665 5663 5661 5659 5657 5655 5653 5651 5650 5649 5647 5646 5645 5645 5644 5642 5641 5640 5640
5695 5695 5694 5694 5693 5692 5691 5690 5689 5688 5687 5686 5685 5683 5681 5679 5677 5675 5673 5670 5668 5665 5663 5661 5659 5657 5655 5653 5651 5648 5646 5644 5643 5641 5640 5638 5637 5636 5635 5634 5634 5632 5632 5631
5688 5687 5687 5686 5685 5684 5683 5683 5682 5681 5680 5678 5676 5675 5673 5671 5670 5667 5665 5662 5660 5657 5655 5653 5652 5650 5647 5645 5643 5640 5638 5636 5634 5633 5631 5630 5629 5627 5626 5625 5625 5624 5623 5622
5680 5679 5679 5678 5678 5677 5676 5675 5674 5673 5672 5670 5668 5667 5665 5663 5661 5659 5657 5655 5652 5650 5648 5645 5643 5641 5639 5637 5635 5633 5631 5629 5627 5625 5624 5622 5621 5619 5618 5617 5616 5615 5614 5612
5672 5671 5671 5670 5670 5669 5668 5668 5666 5665 5664 5662 5660 5658 5657 5655 5653 5651 5649 5647 5644 5642 5640 5638 5636 5634 5632 5630 5628 5625 5623 5621 5619 5618 5616 5615 5613 5612 5610 5609 5608 5606 5605 5603
5663 5663 5662 5662 5662 5661 5660 5659 5658 5657 5656 5654 5652 5650 5648 5647 5645 5643 5641 5639 5637 5635 5633 5630 5628 5627 5624 5622 5620 5618 5616 5614 5612 5611 5609 5607 5606 5604 5602 5601 5599 5598 5597 5595
5654 5654 5654 5653 5653 5653 5652 5651 5650 5649 5647 5646 5644 5642 5640 5638 5637 5635 5633 5631 5629 5627 5625 5623 5621 5619 5617 5615 5613 5611 5609 5607 5605 5604 5602 5600 5598 5597 5595 5593 5591 5590 5588 5587
5646 5645 5645 5645 5645 5644 5643 5642 5641 5640 5639 5637 5636 5634 5632 5630 5628 5627 5625 5623 5621 5619 5618 5616 5614 5612 5610 5607 5605 5604 5602 5600 5598 5597 5595 5593 5591 5589 5587 5586 5584 5582 5581 5579
5638 5637 5637 5637 5636 5636 5635 5634 5633 5632 5631 5629 5627 5626 5624 5622 5620 5619 5617 5615 5613 5611 5610 5608 5606 5604 5602 5600 5598 5596 5595 5593 5591 5590 5588 5586 5584 5582 5580 5578 5576 5575 5573 5571
5630 5630 5629 5629 5628 5628 5627 5626 5625 5624 5622 5621 5619 5617 5615 5614 5612 5610 5608 5607 5605 5603 5602 5600 5598 5596 5594 5592 5591 5589 5588 5586 5584 5582 5581 5579 5577 5575 5573 5571 5569 5567 5565 5563
5623 5622 5622 5621 5620 5620 5619 5618 5617 5616 5614 5613 5611 5609 5607 5606 5604 5602 5601 5599 5597 5596 5594 5593 5591 5589 5587 5586 5584 5582 5581 5579 5577 5575 5573 5571 5569 5567 5565 5563 5561 5559 5557 5555
5616 5615 5614 5613 5612 5612 5611 5610 5609 5608 5607 5605 5604 5602 5600 5598 5597 5595 5593 5591 5590 5588 5587 5585 5584 5582 5580 5578 5577 5575 5573 5571 5569 5567 5565 5563 5561 5559 5557 5555 5553 5551 5549 5547
5608 5607 5606 5606 5605 5604 5603 5603 5602 5600 5599 5598 5596 5595 5593 5591 5589 5588 5586 5584 5583 5581 5580 5578 5576 5574 5573 5571 5569 5567 5565 5563 5561 5559 5557 5555 5552 5550 5548 5546 5544 5542 5540 5538
5600 5599 5599 5598 5597 5596 5595 5594 5594 5593 5592 5590 5589 5587 5586 5584 5582 5581 5579 5578 5576 5574 5572 5571 5569 5567 5565 5563 5561 5559 5557 5555 5552 5550 5548 5546 5543 5541 5539 5537 5535 5533 5531 5529
5592 5591 5591 5590 5589 5588 5587 5587 5586 5585 5584 5583 5582 5580 5579 5577 5575 5574 5572 5571 5569 5567 5565 5563 5561 5560 5558 5555 5553 5551 5549 5546 5544 5541 5539 5537 5534 5532 5530 5528 5526 5524 5522 5520